Lid_Strength_Index
2 2 2 2 3 4 4 4 8 2 2 7 6 8 7 8 7 6 6 6 7 8 8 9 9 9 8 6 6 9 9 11 12 11 7 7 9 9 10 14 16 14 15 16
2 2 2 3 4 4 5 6 5 2 4 9 8 6 7 6 7 7 6 7 6 6 8 8 8 7 6 6 7 9 8 13 13 12 10 7 10 9 8 10 12 13 16 16
2 2 2 3 4 4 5 6 9 5 4 5 6 7 7 7 5 6 6 6 6 7 8 7 9 8 6 6 6 3 6 11 12 14 12 10 11 9 8 11 12 12 12 13
2 2 2 3 4 4 5 5 8 6 10 7 7 6 7 7 7 5 6 6 6 7 10 9 9 7 7 7 6 7 8 11 10 11 9 9 9 9 8 10 11 11 11 11
2 2 2 3 3 4 4 7 7 6 7 6 7 8 8 7 6 6 7 7 6 7 9 8 9 8 8 8 8 8 8 11 11 12 9 9 9 8 8 9 9 10 10 11
2 2 2 3 4 5 4 3 3 5 8 8 8 8 7 6 6 5 5 6 6 8 7 6 6 6 6 7 9 9 9 10 12 16 10 10 12 10 9 9 8 9 12 10
2 2 2 3 3 4 4 4 4 7 9 8 8 7 7 7 6 6 5 6 7 6 4 4 5 6 7 6 7 7 10 11 12 15 13 17 11 7 7 8 8 7 7 8
2 2 2 3 3 3 4 3 4 6 9 7 8 7 8 7 6 6 7 6 5 4 5 9 11 12 10 9 8 8 8 10 13 16 17 14 10 8 9 10 10 6 8 7
2 2 2 3 3 3 4 4 2 4 7 8 6 8 7 8 8 7 7 5 4 5 7 9 13 15 13 12 11 8 8 8 13 14 17 17 11 7 5 7 12 6 7 7
2 3 3 3 3 3 4 4 3 3 7 5 5 8 8 6 6 8 7 6 6 5 9 11 14 14 10 15 14 13 12 12 13 14 15 12 7 6 6 14 12 7 6 6
3 3 3 4 4 4 4 4 2 3 5 5 4 4 6 5 6 9 7 8 7 8 10 11 13 13 12 13 11 12 14 14 15 14 16 16 7 7 10 8 7 6 6 6
3 3 3 4 4 4 4 5 1 0 4 4 3 3 3 4 4 6 6 8 8 7 9 10 11 13 12 13 15 9 13 11 13 12 13 8 6 7 6 5 6 6 6 6
4 3 4 4 4 4 4 5 3 2 4 4 4 4 3 2 3 2 7 6 5 6 5 8 10 12 10 14 13 11 9 8 11 10 8 7 6 5 5 5 5 5 5 4
4 4 4 4 5 5 5 5 3 2 4 7 6 1 3 1 2 2 2 4 4 4 5 7 9 11 8 11 10 11 9 9 10 10 7 6 6 5 5 4 4 4 4 4
4 4 5 5 5 5 5 5 3 2 4 8 6 3 2 2 2 2 2 4 5 5 7 8 9 7 8 7 8 10 7 8 10 11 7 7 7 5 4 4 4 4 4 4
4 5 5 5 5 5 7 5 2 1 1 5 8 3 3 2 2 2 3 3 4 5 6 7 6 5 7 9 10 7 6 5 6 7 5 5 5 4 4 4 4 3 4 4
5 5 5 5 6 7 7 6 4 5 3 5 8 7 3 2 3 3 4 3 4 5 6 7 7 7 6 8 10 7 6 5 5 4 5 6 4 5 4 3 3 3 3 3
5 5 6 6 6 7 7 4 5 5 3 4 8 8 6 3 5 6 4 5 5 5 6 6 7 7 7 10 7 6 5 5 5 4 4 5 4 4 4 3 3 4 4 4
5 6 6 7 7 6 3 3 4 3 3 8 7 9 9 3 5 5 5 5 8 5 8 7 7 8 10 8 7 6 5 6 5 4 3 4 4 4 4 4 4 5 5 4
6 8 8 7 3 3 3 4 4 4 4 5 8 6 8 5 6 7 7 6 8 10 8 6 9 9 6 6 5 5 5 4 4 6 6 5 5 5 5 5 4 4 4 4
8 7 5 2 4 3 4 7 7 7 8 6 6 6 8 4 8 8 6 9 8 11 9 9 10 10 7 5 5 5 4 4 4 4 4 4 4 5 4 4 4 4 4 5
6 6 4 2 4 6 8 9 7 8 9 6 7 6 5 5 4 7 7 8 9 11 7 9 11 10 7 6 5 5 4 4 3 4 4 4 4 4 4 4 4 4 4 4
4 5 5 6 6 12 11 12 10 9 6 6 6 7 6 6 5 7 8 10 10 7 10 11 11 8 6 6 5 4 3 4 4 4 4 4 4 3 4 5 4 4 5 4
6 7 13 10 10 9 8 8 8 6 5 6 6 7 7 6 7 8 9 9 8 11 12 11 9 7 6 5 4 5 5 4 4 4 4 4 5 4 4 3 3 3 4 3
7 7 12 9 7 6 6 5 5 5 5 5 6 7 7 8 8 8 9 10 12 11 11 10 7 6 6 6 5 5 5 4 4 4 4 4 3 4 4 3 3 3 3 4
6 6 8 7 7 7 6 6 6 4 5 5 6 8 9 9 9 9 11 11 11 11 9 7 6 6 5 5 5 4 4 4 4 4 4 3 4 4 4 4 4 3 4 5
7 7 5 6 6 6 6 5 5 4 5 9 8 10 10 8 10 10 9 10 9 8 7 6 5 5 5 5 4 4 4 4 4 3 3 3 3 3 4 5 5 4 4 5